,,,PA_Meas_PMT16A,,PR_Meas_QMR101_102,,RH_Meas_QMH101,,SR_Meas_QMS101,,TA_Meas_QMH101,,GenWind,,GenWind,
date,time,status,PA,status,PR,status,RH,status,SR,status,TA,status,DirAvg,status,SpdAvg,
2008-12-06, 00:00:04,VALID,1010.33,VALID,0,VALID,94.5365,VALID,0,VALID,25.2318,VALID,187,VALID,0.509766,
2008-12-06, 00:01:04,VALID,1010.3,VALID,0,VALID,94.5365,VALID,0,VALID,25.2532,VALID,187,VALID,0.14375,
2008-12-06, 00:02:04,VALID,1010.29,VALID,0,VALID,94.5365,VALID,0,VALID,25.2727,VALID,187,VALID,0.0902344,
2008-12-06, 00:03:04,VALID,1010.28,VALID,0,VALID,94.5136,VALID,0,VALID,25.2922,VALID,187,VALID,0.240625,
2008-12-06, 00:04:04,VALID,1010.27,VALID,0,VALID,94.4755,VALID,0,VALID,25.2513,VALID,187,VALID,0.331641,
2008-12-06, 00:05:04,VALID,1010.26,VALID,0,VALID,94.445,VALID,0,VALID,25.2727,VALID,187,VALID,0.341797,
2008-12-06, 00:06:04,VALID,1010.29,VALID,0,VALID,94.3992,VALID,0,VALID,25.2727,VALID,142,VALID,0.582031,
2008-12-06, 00:07:04,VALID,1010.29,VALID,0,VALID,94.3916,VALID,0,VALID,25.2727,VALID,130,VALID,0.251172,
2008-12-06, 00:08:04,VALID,1010.28,VALID,0,VALID,94.3687,VALID,0,VALID,25.2727,VALID,139,VALID,0.860547,
2008-12-06, 00:09:04,VALID,1010.29,VALID,0,VALID,94.3534,VALID,0,VALID,25.2727,VALID,146,VALID,1.00469,
2008-12-06, 00:10:04,VALID,1010.29,VALID,0,VALID,94.3229,VALID,0,VALID,25.2727,VALID,141,VALID,0.613281,
2008-12-06, 00:11:04,VALID,1010.3,VALID,0,VALID,94.3001,VALID,0,VALID,25.2513,VALID,135,VALID,0.848437,
2008-12-06, 00:12:04,VALID,1010.25,VALID,0,VALID,94.2924,VALID,0,VALID,25.2532,VALID,132,VALID,0.775,
2008-12-06, 00:13:04,VALID,1010.26,VALID,0,VALID,94.2848,VALID,0,VALID,25.2337,VALID,129,VALID,0.76875,
2008-12-06, 00:14:04,VALID,1010.26,VALID,0,VALID,94.2848,VALID,0,VALID,25.2123,VALID,116,VALID,1.03047,
2008-12-06, 00:15:04,VALID,1010.25,VALID,0,VALID,94.2543,VALID,0,VALID,25.2123,VALID,118,VALID,0.782422,
2008-12-06, 00:16:04,VALID,1010.23,VALID,0,VALID,94.2848,VALID,0,VALID,25.2337,VALID,92,VALID,0.669531,
2008-12-06, 00:17:04,VALID,1010.21,VALID,0,VALID,94.2772,VALID,0,VALID,25.2532,VALID,120,VALID,0.669531,
2008-12-06, 00:18:04,VALID,1010.21,VALID,0,VALID,94.2772,VALID,0,VALID,25.2337,VALID,125,VALID,0.767578,
2008-12-06, 00:19:04,VALID,1010.2,VALID,0,VALID,94.2848,VALID,0,VALID,25.2337,VALID,110,VALID,0.606641,
2008-12-06, 00:20:04,VALID,1010.15,VALID,0,VALID,94.2543,VALID,0,VALID,25.2142,VALID,133,VALID,1.12461,
2008-12-06, 00:21:04,VALID,1010.18,VALID,0,VALID,94.1933,VALID,0,VALID,25.2337,VALID,132,VALID,0.8375,
2008-12-06, 00:22:04,VALID,1010.14,VALID,0,VALID,94.1857,VALID,0,VALID,25.2337,VALID,110,VALID,0.726953,
2008-12-06, 00:23:04,VALID,1010.1,VALID,0,VALID,94.1781,VALID,0,VALID,25.2123,VALID,92,VALID,0.663281,
2008-12-06, 00:24:04,VALID,1010.11,VALID,0,VALID,94.1094,VALID,0,VALID,25.2337,VALID,105,VALID,0.580078,
2008-12-06, 00:25:04,VALID,1010.08,VALID,0,VALID,94.1018,VALID,0,VALID,25.2532,VALID,97,VALID,0.678125,
2008-12-06, 00:26:04,VALID,1010.05,VALID,0,VALID,94.0942,VALID,0,VALID,25.2123,VALID,97,VALID,1.02383,
2008-12-06, 00:27:04,VALID,1010.04,VALID,0,VALID,94.0637,VALID,0,VALID,25.2337,VALID,106,VALID,0.874219,
2008-12-06, 00:28:04,VALID,1010.01,VALID,0,VALID,94.0484,VALID,0,VALID,25.2337,VALID,99,VALID,0.245312,
2008-12-06, 00:29:04,VALID,1009.99,VALID,0,VALID,94.0255,VALID,0,VALID,25.2337,VALID,85,VALID,0.310156,
2008-12-06, 00:30:04,VALID,1009.96,VALID,0,VALID,94.0027,VALID,0,VALID,25.2337,VALID,73,VALID,0.437109,
2008-12-06, 00:31:04,VALID,1009.96,VALID,0,VALID,93.9417,VALID,0,VALID,25.2142,VALID,98,VALID,0.553516,
2008-12-06, 00:32:04,VALID,1009.92,VALID,0,VALID,93.8425,VALID,0,VALID,25.1947,VALID,78,VALID,1.06562,
2008-12-06, 00:33:04,VALID,1009.93,VALID,0,VALID,93.5604,VALID,0,VALID,25.1947,VALID,111,VALID,0.496094,
2008-12-06, 00:34:04,VALID,1009.91,VALID,0,VALID,93.141,VALID,0,VALID,25.1947,VALID,84,VALID,0.840234,
2008-12-06, 00:35:04,VALID,1009.9,VALID,0,VALID,92.6605,VALID,0,VALID,25.2142,VALID,127,VALID,0.376172,
2008-12-06, 00:36:04,VALID,1009.9,VALID,0,VALID,92.142,VALID,0,VALID,25.2142,VALID,131,VALID,0.892187,
2008-12-06, 00:37:04,VALID,1009.89,VALID,0,VALID,91.4328,VALID,0,VALID,25.2337,VALID,115,VALID,0.858203,
2008-12-06, 00:38:04,VALID,1009.9,VALID,0,VALID,91.2955,VALID,0,VALID,25.2532,VALID,116,VALID,0.680859,
2008-12-06, 00:39:04,VALID,1009.87,VALID,0,VALID,91.3718,VALID,0,VALID,25.2532,VALID,116,VALID,0.432422,
2008-12-06, 00:40:04,VALID,1009.85,VALID,0,VALID,91.4328,VALID,0,VALID,25.2337,VALID,116,VALID,0.649609,
2008-12-06, 00:41:04,VALID,1009.84,VALID,0,VALID,91.2421,VALID,0,VALID,25.1947,VALID,107,VALID,0.710156,
2008-12-06, 00:42:04,VALID,1009.81,VALID,0,VALID,91.204,VALID,0,VALID,25.1947,VALID,116,VALID,0.501562,
2008-12-06, 00:43:04,VALID,1009.76,VALID,0,VALID,91.6463,VALID,0,VALID,25.2142,VALID,98,VALID,0.324219,
2008-12-06, 00:44:04,VALID,1009.75,VALID,0,VALID,91.9895,VALID,0,VALID,25.1947,VALID,63,VALID,0.419141,
2008-12-06, 00:45:04,VALID,1009.74,VALID,0,VALID,92.2792,VALID,0,VALID,25.1752,VALID,33,VALID,0.978125,
2008-12-06, 00:46:04,VALID,1009.72,VALID,0,VALID,92.5461,VALID,0,VALID,25.1557,VALID,39,VALID,0.703125,
2008-12-06, 00:47:04,VALID,1009.71,VALID,0,VALID,92.7139,VALID,0,VALID,25.1362,VALID,39,VALID,0.230078,
2008-12-06, 00:48:04,VALID,1009.7,VALID,0,VALID,92.8588,VALID,0,VALID,25.1167,VALID,39,VALID,0,
2008-12-06, 00:49:04,VALID,1009.69,VALID,0,VALID,92.9732,VALID,0,VALID,25.0973,VALID,39,VALID,0,
2008-12-06, 00:50:04,VALID,1009.69,VALID,0,VALID,93.0799,VALID,0,VALID,25.0583,VALID,39,VALID,0.320313,
2008-12-06, 00:51:04,VALID,1009.69,VALID,0,VALID,93.141,VALID,0,VALID,25.0388,VALID,41,VALID,0.431641,
2008-12-06, 00:52:04,VALID,1009.64,VALID,0,VALID,93.2248,VALID,0,VALID,25.0193,VALID,41,VALID,0.194922,
2008-12-06, 00:53:04,VALID,1009.64,VALID,0,VALID,93.1257,VALID,0,VALID,24.9608,VALID,62,VALID,0.830859,
2008-12-06, 00:54:04,VALID,1009.61,VALID,0,VALID,92.4394,VALID,0,VALID,24.9023,VALID,55,VALID,0.75,
2008-12-06, 00:55:04,VALID,1009.61,VALID,0,VALID,91.3642,VALID,0,VALID,24.9023,VALID,60,VALID,0.636719,
2008-12-06, 00:56:04,VALID,1009.59,VALID,0,VALID,90.7693,VALID,0,VALID,24.9218,VALID,62,VALID,0.438672,
2008-12-06, 00:57:04,VALID,1009.57,VALID,0,VALID,90.5482,VALID,0,VALID,24.9218,VALID,64,VALID,0.248437,
2008-12-06, 00:58:04,VALID,1009.55,VALID,0,VALID,87.5818,VALID,0,VALID,24.8633,VALID,97,VALID,0.610937,
2008-12-06, 00:59:04,VALID,1009.55,VALID,0,VALID,86.0109,VALID,0,VALID,24.9023,VALID,96,VALID,0.600391,
2008-12-06, 01:00:04,VALID,1009.51,VALID,0,VALID,86.1481,VALID,0,VALID,24.9023,VALID,92,VALID,0.68125,
2008-12-06, 01:01:05,VALID,1009.49,VALID,0,VALID,86.8802,VALID,0,VALID,24.9218,VALID,92,VALID,0.417578,
2008-12-06, 01:02:05,VALID,1009.48,VALID,0,VALID,86.5599,VALID,0,VALID,24.9023,VALID,92,VALID,0.35625,
2008-12-06, 01:03:05,VALID,1009.47,VALID,0,VALID,86.1253,VALID,0,VALID,24.9023,VALID,92,VALID,0.381641,
2008-12-06, 01:04:05,VALID,1009.44,VALID,0,VALID,86.0719,VALID,0,VALID,24.8828,VALID,92,VALID,0.583984,
2008-12-06, 01:05:05,VALID,1009.42,VALID,0,VALID,87.1014,VALID,0,VALID,24.9004,VALID,92,VALID,0.309766,
2008-12-06, 01:06:05,VALID,1009.42,VALID,0,VALID,87.9554,VALID,0,VALID,24.9023,VALID,92,VALID,0.278125,
2008-12-06, 01:07:05,VALID,1009.39,VALID,0,VALID,88.9773,VALID,0,VALID,24.9023,VALID,92,VALID,0,
2008-12-06, 01:08:05,VALID,1009.4,VALID,0,VALID,88.9315,VALID,0,VALID,24.8633,VALID,92,VALID,0,
2008-12-06, 01:09:05,VALID,1009.37,VALID,0,VALID,89.5492,VALID,0,VALID,24.8633,VALID,92,VALID,0,
2008-12-06, 01:10:05,VALID,1009.37,VALID,0,VALID,89.7094,VALID,0,VALID,24.8049,VALID,61,VALID,0,
2008-12-06, 01:11:05,VALID,1009.35,VALID,0,VALID,89.6789,VALID,0,VALID,24.7659,VALID,58,VALID,0,
2008-12-06, 01:12:05,VALID,1009.34,VALID,0,VALID,89.7399,VALID,0,VALID,24.7074,VALID,58,VALID,0,
2008-12-06, 01:13:05,VALID,1009.34,VALID,0,VALID,90.1517,VALID,0,VALID,24.6879,VALID,58,VALID,0,
2008-12-06, 01:14:05,VALID,1009.32,VALID,0,VALID,90.4338,VALID,0,VALID,24.6489,VALID,58,VALID,0,
2008-12-06, 01:15:05,VALID,1009.3,VALID,0,VALID,90.4414,VALID,0,VALID,24.571,VALID,57,VALID,0,
2008-12-06, 01:16:05,VALID,1009.26,VALID,0,VALID,90.6321,VALID,0,VALID,24.571,VALID,58,VALID,0,
2008-12-06, 01:17:05,VALID,1009.24,VALID,0,VALID,90.4186,VALID,0,VALID,24.571,VALID,50,VALID,0,
2008-12-06, 01:18:05,VALID,1009.23,VALID,0,VALID,90.716,VALID,0,VALID,24.571,VALID,50,VALID,0,
2008-12-06, 01:19:05,VALID,1009.23,VALID,0,VALID,89.8924,VALID,0,VALID,24.532,VALID,50,VALID,0,
2008-12-06, 01:20:05,VALID,1009.21,VALID,0,VALID,89.6636,VALID,0,VALID,24.5125,VALID,50,VALID,0,
2008-12-06, 01:21:05,VALID,1009.2,VALID,0,VALID,90.4796,VALID,0,VALID,24.532,VALID,50,VALID,0,
2008-12-06, 01:22:05,VALID,1009.16,VALID,0,VALID,90.3728,VALID,0,VALID,24.5125,VALID,49,VALID,0,
2008-12-06, 01:23:05,VALID,1009.14,VALID,0,VALID,90.2432,VALID,0,VALID,24.5125,VALID,48,VALID,0,
2008-12-06, 01:24:05,VALID,1009.13,VALID,0,VALID,90.4033,VALID,0,VALID,24.4911,VALID,48,VALID,0,
2008-12-06, 01:25:05,VALID,1009.13,VALID,0,VALID,90.9219,VALID,0,VALID,24.5125,VALID,48,VALID,0,
2008-12-06, 01:26:05,VALID,1009.11,VALID,0,VALID,91.2879,VALID,0,VALID,24.4735,VALID,48,VALID,0,
2008-12-06, 01:27:05,VALID,1009.1,VALID,0,VALID,91.0973,VALID,0,VALID,24.4345,VALID,48,VALID,0,
2008-12-06, 01:28:05,VALID,1009.12,VALID,0,VALID,91.1888,VALID,0,VALID,24.4345,VALID,48,VALID,0,
2008-12-06, 01:29:05,VALID,1009.16,VALID,0,VALID,91.6311,VALID,0,VALID,24.415,VALID,48,VALID,0,
2008-12-06, 01:30:05,VALID,1009.12,VALID,0,VALID,91.7912,VALID,0,VALID,24.3956,VALID,48,VALID,0,
2008-12-06, 01:31:05,VALID,1009.16,VALID,0,VALID,92.1572,VALID,0,VALID,24.3956,VALID,48,VALID,0,
2008-12-06, 01:32:05,VALID,1009.17,VALID,0,VALID,92.3402,VALID,0,VALID,24.3956,VALID,48,VALID,0,
2008-12-06, 01:33:05,VALID,1009.18,VALID,0,VALID,92.2411,VALID,0,VALID,24.3566,VALID,48,VALID,0,
2008-12-06, 01:34:05,VALID,1009.16,VALID,0,VALID,92.4394,VALID,0,VALID,24.3566,VALID,48,VALID,0,
2008-12-06, 01:35:05,VALID,1009.16,VALID,0,VALID,92.508,VALID,0,VALID,24.3158,VALID,48,VALID,0,
2008-12-06, 01:36:05,VALID,1009.13,VALID,0,VALID,92.264,VALID,0,VALID,24.2786,VALID,48,VALID,0.46875,
2008-12-06, 01:37:05,VALID,1009.12,VALID,0,VALID,91.0134,VALID,0,VALID,24.2183,VALID,66,VALID,0.748828,
2008-12-06, 01:38:05,VALID,1009.12,VALID,0,VALID,91.326,VALID,0,VALID,24.2183,VALID,46,VALID,0.451172,
2008-12-06, 01:39:05,VALID,1009.11,VALID,0,VALID,91.2726,VALID,0,VALID,24.2396,VALID,46,VALID,0.346094,
2008-12-06, 01:40:05,VALID,1009.11,VALID,0,VALID,91.448,VALID,0,VALID,24.1988,VALID,46,VALID,0.223047,
2008-12-06, 01:41:05,VALID,1009.06,VALID,0,VALID,91.5243,VALID,0,VALID,24.1812,VALID,46,VALID,0.00664063,
2008-12-06, 01:42:05,VALID,1009.04,VALID,0,VALID,91.5472,VALID,0,VALID,24.1422,VALID,46,VALID,0,
2008-12-06, 01:43:05,VALID,1009.06,VALID,0,VALID,91.7836,VALID,0,VALID,24.1422,VALID,46,VALID,0,
2008-12-06, 01:44:05,VALID,1009.06,VALID,0,VALID,91.8751,VALID,0,VALID,24.1422,VALID,46,VALID,0,
2008-12-06, 01:45:05,VALID,1009.07,VALID,0,VALID,91.5319,VALID,0,VALID,24.1032,VALID,46,VALID,0,
2008-12-06, 01:46:05,VALID,1009.06,VALID,0,VALID,91.8217,VALID,0,VALID,24.0819,VALID,46,VALID,0,
2008-12-06, 01:47:05,VALID,1009.07,VALID,0,VALID,91.7683,VALID,0,VALID,24.0643,VALID,46,VALID,0,
2008-12-06, 01:48:05,VALID,1009.05,VALID,0,VALID,91.959,VALID,0,VALID,24.0235,VALID,46,VALID,0,
2008-12-06, 01:49:05,VALID,1009.05,VALID,0,VALID,92.2716,VALID,0,VALID,24.0448,VALID,46,VALID,0,
2008-12-06, 01:50:05,VALID,1009.04,VALID,0,VALID,91.7073,VALID,0,VALID,24.0058,VALID,47,VALID,0,
2008-12-06, 01:51:05,VALID,1009.02,VALID,0,VALID,91.0896,VALID,0,VALID,23.9863,VALID,47,VALID,0,
2008-12-06, 01:52:05,VALID,1009.01,VALID,0,VALID,91.0057,VALID,0,VALID,23.9668,VALID,47,VALID,0,
2008-12-06, 01:53:05,VALID,1008.99,VALID,0,VALID,90.6778,VALID,0,VALID,23.9473,VALID,47,VALID,0,
2008-12-06, 01:54:05,VALID,1009,VALID,0,VALID,90.7465,VALID,0,VALID,23.9278,VALID,47,VALID,0,
2008-12-06, 01:55:05,VALID,1009,VALID,0,VALID,90.7617,VALID,0,VALID,23.9065,VALID,47,VALID,0,
2008-12-06, 01:56:05,VALID,1008.98,VALID,0,VALID,90.7922,VALID,0,VALID,23.9065,VALID,47,VALID,0,
2008-12-06, 01:57:05,VALID,1009.01,VALID,0,VALID,91.0362,VALID,0,VALID,23.9084,VALID,47,VALID,0,
2008-12-06, 01:58:05,VALID,1009,VALID,0,VALID,91.143,VALID,0,VALID,23.9084,VALID,47,VALID,0,
2008-12-06, 01:59:05,VALID,1008.97,VALID,0,VALID,90.9829,VALID,0,VALID,23.8889,VALID,47,VALID,0,
2008-12-06, 02:00:05,VALID,1009,VALID,0,VALID,91.5014,VALID,0,VALID,23.9084,VALID,47,VALID,0.113672,
2008-12-06, 02:01:05,VALID,1008.98,VALID,0,VALID,91.6539,VALID,0,VALID,23.8694,VALID,47,VALID,0,
2008-12-06, 02:02:05,VALID,1008.98,VALID,0,VALID,91.5243,VALID,0,VALID,23.8304,VALID,47,VALID,0,
2008-12-06, 02:03:05,VALID,1008.96,VALID,0,VALID,91.5243,VALID,0,VALID,23.7914,VALID,47,VALID,0,
2008-12-06, 02:04:05,VALID,1008.98,VALID,0,VALID,91.3794,VALID,0,VALID,23.772,VALID,47,VALID,0,
2008-12-06, 02:05:05,VALID,1008.96,VALID,0,VALID,91.3336,VALID,0,VALID,23.733,VALID,47,VALID,0,
2008-12-06, 02:06:05,VALID,1008.94,VALID,0,VALID,91.4938,VALID,0,VALID,23.7525,VALID,47,VALID,0,
2008-12-06, 02:07:05,VALID,1008.97,VALID,0,VALID,91.7836,VALID,0,VALID,23.733,VALID,47,VALID,0,
2008-12-06, 02:08:05,VALID,1008.97,VALID,0,VALID,91.6158,VALID,0,VALID,23.7135,VALID,47,VALID,0,
2008-12-06, 02:09:05,VALID,1008.97,VALID,0,VALID,90.4414,VALID,0,VALID,23.7153,VALID,80,VALID,0.594141,
2008-12-06, 02:10:05,VALID,1008.95,VALID,0,VALID,90.2127,VALID,0,VALID,23.7135,VALID,80,VALID,0.269922,
2008-12-06, 02:11:05,VALID,1008.95,VALID,0,VALID,90.4262,VALID,0,VALID,23.733,VALID,80,VALID,0.202734,
2008-12-06, 02:12:05,VALID,1008.94,VALID,0,VALID,90.2737,VALID,0,VALID,23.733,VALID,80,VALID,0.370703,
2008-12-06, 02:13:05,VALID,1008.94,VALID,0,VALID,90.5787,VALID,0,VALID,23.7525,VALID,80,VALID,0.162891,
2008-12-06, 02:14:05,VALID,1008.9,VALID,0,VALID,90.6931,VALID,0,VALID,23.7525,VALID,80,VALID,0.164844,
2008-12-06, 02:15:05,VALID,1008.91,VALID,0,VALID,90.5787,VALID,0,VALID,23.7525,VALID,80,VALID,0.0519531,
2008-12-06, 02:16:05,VALID,1008.87,VALID,0,VALID,90.2737,VALID,0,VALID,23.733,VALID,80,VALID,0.301953,
2008-12-06, 02:17:05,VALID,1008.84,VALID,0,VALID,90.5329,VALID,0,VALID,23.733,VALID,80,VALID,0.21875,
2008-12-06, 02:18:05,VALID,1008.82,VALID,0,VALID,90.9295,VALID,0,VALID,23.733,VALID,80,VALID,0.2125,
2008-12-06, 02:19:05,VALID,1008.8,VALID,0,VALID,90.4491,VALID,0,VALID,23.6922,VALID,80,VALID,0.352734,
2008-12-06, 02:20:05,VALID,1008.78,VALID,0,VALID,90.2127,VALID,0,VALID,23.7135,VALID,112,VALID,0.380078,
2008-12-06, 02:21:05,VALID,1008.78,VALID,0,VALID,90.0373,VALID,0,VALID,23.7135,VALID,120,VALID,0.065625,
2008-12-06, 02:22:05,VALID,1008.76,VALID,0,VALID,89.961,VALID,0,VALID,23.694,VALID,120,VALID,0,
2008-12-06, 02:23:05,VALID,1008.75,VALID,0,VALID,90.0068,VALID,0,VALID,23.694,VALID,120,VALID,0,
2008-12-06, 02:24:05,VALID,1008.75,VALID,0,VALID,90.083,VALID,0,VALID,23.694,VALID,120,VALID,0,
2008-12-06, 02:25:05,VALID,1008.72,VALID,0,VALID,90.4338,VALID,0,VALID,23.7135,VALID,120,VALID,0,
2008-12-06, 02:26:05,VALID,1008.71,VALID,0,VALID,90.777,VALID,0,VALID,23.694,VALID,120,VALID,0,
2008-12-06, 02:27:05,VALID,1008.71,VALID,0,VALID,90.5863,VALID,0,VALID,23.655,VALID,136,VALID,0.620313,
2008-12-06, 02:28:05,VALID,1008.7,VALID,0,VALID,89.5187,VALID,0,VALID,23.655,VALID,154,VALID,0.578906,
2008-12-06, 02:29:05,VALID,1008.7,VALID,0,VALID,89.5797,VALID,0,VALID,23.6745,VALID,154,VALID,0.4625,
2008-12-06, 02:30:05,VALID,1008.72,VALID,0,VALID,89.7322,VALID,0,VALID,23.6745,VALID,154,VALID,0.448047,
2008-12-06, 02:31:05,VALID,1008.68,VALID,0,VALID,89.9076,VALID,0,VALID,23.6745,VALID,154,VALID,0.444141,
2008-12-06, 02:32:05,VALID,1008.7,VALID,0,VALID,90.2584,VALID,0,VALID,23.6745,VALID,154,VALID,0.44375,
2008-12-06, 02:33:05,VALID,1008.69,VALID,0,VALID,90.3881,VALID,0,VALID,23.655,VALID,154,VALID,0.537891,
2008-12-06, 02:34:05,VALID,1008.67,VALID,0,VALID,90.3728,VALID,0,VALID,23.6356,VALID,154,VALID,0.489844,
2008-12-06, 02:35:05,VALID,1008.67,VALID,0,VALID,90.7541,VALID,0,VALID,23.6161,VALID,154,VALID,0.584766,
2008-12-06, 02:36:05,VALID,1008.68,VALID,0,VALID,90.9142,VALID,0,VALID,23.5966,VALID,160,VALID,0.434375,
2008-12-06, 02:37:05,VALID,1008.66,VALID,0,VALID,90.6397,VALID,0,VALID,23.5771,VALID,173,VALID,0.664063,
2008-12-06, 02:38:05,VALID,1008.65,VALID,0,VALID,90.1822,VALID,0,VALID,23.5576,VALID,166,VALID,0.516797,
2008-12-06, 02:39:05,VALID,1008.64,VALID,0,VALID,90.5482,VALID,0,VALID,23.5966,VALID,166,VALID,0.497266,
2008-12-06, 02:40:05,VALID,1008.63,VALID,0,VALID,90.5024,VALID,0,VALID,23.5753,VALID,166,VALID,0.383203,
2008-12-06, 02:41:05,VALID,1008.67,VALID,0,VALID,90.3194,VALID,0,VALID,23.5771,VALID,166,VALID,0.528516,
2008-12-06, 02:42:05,VALID,1008.66,VALID,0,VALID,90.5634,VALID,0,VALID,23.5966,VALID,166,VALID,0.257813,
2008-12-06, 02:43:05,VALID,1008.66,VALID,0,VALID,90.6016,VALID,0,VALID,23.5771,VALID,149,VALID,0.408203,
2008-12-06, 02:44:05,VALID,1008.64,VALID,0,VALID,90.3499,VALID,0,VALID,23.5576,VALID,149,VALID,0.416016,
2008-12-06, 02:45:05,VALID,1008.61,VALID,0,VALID,90.2737,VALID,0,VALID,23.5558,VALID,149,VALID,0.470313,
2008-12-06, 02:46:05,VALID,1008.63,VALID,0,VALID,89.9915,VALID,0,VALID,23.5771,VALID,149,VALID,0.635156,
2008-12-06, 02:47:05,VALID,1008.64,VALID,0,VALID,90.0602,VALID,0,VALID,23.5966,VALID,148,VALID,0.463281,
2008-12-06, 02:48:05,VALID,1008.6,VALID,0,VALID,90.0678,VALID,0,VALID,23.5753,VALID,146,VALID,0.746484,
2008-12-06, 02:49:05,VALID,1008.59,VALID,0,VALID,89.9076,VALID,0,VALID,23.5753,VALID,146,VALID,0.663672,
2008-12-06, 02:50:05,VALID,1008.58,VALID,0,VALID,89.8085,VALID,0,VALID,23.5966,VALID,147,VALID,0.705078,
2008-12-06, 02:51:05,VALID,1008.58,VALID,0,VALID,89.9458,VALID,0,VALID,23.5753,VALID,146,VALID,0.500781,
2008-12-06, 02:52:05,VALID,1008.56,VALID,0,VALID,90.0602,VALID,0,VALID,23.5966,VALID,145,VALID,0.589453,
2008-12-06, 02:53:05,VALID,1008.57,VALID,0,VALID,89.9686,VALID,0,VALID,23.5966,VALID,145,VALID,0.537891,
2008-12-06, 02:54:05,VALID,1008.57,VALID,0,VALID,90.022,VALID,0,VALID,23.5753,VALID,145,VALID,0.411719,
2008-12-06, 02:55:05,VALID,1008.52,VALID,0,VALID,90.3728,VALID,0,VALID,23.5966,VALID,145,VALID,0.275391,
2008-12-06, 02:56:05,VALID,1008.53,VALID,0,VALID,90.3576,VALID,0,VALID,23.5753,VALID,143,VALID,0.151953,
2008-12-06, 02:57:05,VALID,1008.53,VALID,0,VALID,90.4643,VALID,0,VALID,23.5753,VALID,139,VALID,0.216797,
2008-12-06, 02:58:05,VALID,1008.52,VALID,0,VALID,90.5101,VALID,0,VALID,23.5966,VALID,139,VALID,0.245312,
2008-12-06, 02:59:05,VALID,1008.52,VALID,0,VALID,90.4719,VALID,0,VALID,23.5558,VALID,129,VALID,0.302734,
2008-12-06, 03:00:05,VALID,1008.5,VALID,0,VALID,90.5329,VALID,0,VALID,23.5558,VALID,128,VALID,0.225781,
2008-12-06, 03:01:05,VALID,1008.51,VALID,0,VALID,90.7083,VALID,0,VALID,23.5771,VALID,128,VALID,0.399609,
2008-12-06, 03:02:05,VALID,1008.52,VALID,0,VALID,90.7465,VALID,0,VALID,23.5558,VALID,128,VALID,0.253125,
2008-12-06, 03:03:05,VALID,1008.51,VALID,0,VALID,90.7693,VALID,0,VALID,23.5576,VALID,128,VALID,0.255859,
2008-12-06, 03:04:05,VALID,1008.53,VALID,0,VALID,90.9676,VALID,0,VALID,23.5753,VALID,128,VALID,0,
2008-12-06, 03:05:05,VALID,1008.54,VALID,0,VALID,91.265,VALID,0,VALID,23.5753,VALID,128,VALID,0,
2008-12-06, 03:06:05,VALID,1008.54,VALID,0,VALID,91.4328,VALID,0,VALID,23.5558,VALID,128,VALID,0.155469,
2008-12-06, 03:07:05,VALID,1008.56,VALID,0,VALID,91.5395,VALID,0,VALID,23.5381,VALID,128,VALID,0.371875,
2008-12-06, 03:08:05,VALID,1008.57,VALID,0,VALID,91.7073,VALID,0,VALID,23.5186,VALID,128,VALID,0.161719,
2008-12-06, 03:09:05,VALID,1008.57,VALID,0,VALID,91.7683,VALID,0,VALID,23.4974,VALID,104,VALID,0.572656,
2008-12-06, 03:10:05,VALID,1008.59,VALID,0,VALID,91.6616,VALID,0.105969,VALID,23.4974,VALID,100,VALID,0.728125,
2008-12-06, 03:11:05,VALID,1008.58,VALID,0,VALID,91.7454,VALID,0,VALID,23.4974,VALID,101,VALID,0.507422,
2008-12-06, 03:12:05,VALID,1008.63,VALID,0,VALID,91.898,VALID,0,VALID,23.5186,VALID,101,VALID,0.461328,
2008-12-06, 03:13:05,VALID,1008.61,VALID,0,VALID,91.9971,VALID,0,VALID,23.4779,VALID,101,VALID,0.757031,
2008-12-06, 03:14:05,VALID,1008.58,VALID,0,VALID,91.5319,VALID,0,VALID,23.4797,VALID,101,VALID,0.682813,
2008-12-06, 03:15:05,VALID,1008.58,VALID,0,VALID,91.7226,VALID,0,VALID,23.4779,VALID,122,VALID,0.507031,
2008-12-06, 03:16:05,VALID,1008.55,VALID,0,VALID,91.0134,VALID,0,VALID,23.4584,VALID,129,VALID,0.979297,
2008-12-06, 03:17:05,VALID,1008.58,VALID,0,VALID,89.9153,VALID,0,VALID,23.4797,VALID,153,VALID,0.902344,
2008-12-06, 03:18:05,VALID,1008.56,VALID,0,VALID,90.0373,VALID,0,VALID,23.4584,VALID,137,VALID,0.559375,
2008-12-06, 03:19:05,VALID,1008.55,VALID,0,VALID,89.5035,VALID,0,VALID,23.4797,VALID,125,VALID,0.840625,
2008-12-06, 03:20:05,VALID,1008.57,VALID,0,VALID,88.7866,VALID,0,VALID,23.4602,VALID,118,VALID,0.984766,
2008-12-06, 03:21:05,VALID,1008.59,VALID,0,VALID,89.2137,VALID,0,VALID,23.4797,VALID,125,VALID,0.874609,
2008-12-06, 03:22:05,VALID,1008.59,VALID,0,VALID,89.7094,VALID,0,VALID,23.4584,VALID,127,VALID,0.567969,
2008-12-06, 03:23:05,VALID,1008.59,VALID,0,VALID,89.6484,VALID,0,VALID,23.4407,VALID,140,VALID,0.630859,
2008-12-06, 03:24:05,VALID,1008.56,VALID,0,VALID,89.8695,VALID,0,VALID,23.4212,VALID,137,VALID,0.5875,
2008-12-06, 03:25:05,VALID,1008.58,VALID,0,VALID,89.7856,VALID,0,VALID,23.3805,VALID,126,VALID,0.508594,
2008-12-06, 03:26:05,VALID,1008.6,VALID,0,VALID,89.1908,VALID,0,VALID,23.3805,VALID,127,VALID,0.827734,
2008-12-06, 03:27:05,VALID,1008.59,VALID,0,VALID,88.9697,VALID,0,VALID,23.4017,VALID,127,VALID,0.726172,
2008-12-06, 03:28:05,VALID,1008.58,VALID,0,VALID,88.5197,VALID,0,VALID,23.361,VALID,139,VALID,0.795703,
2008-12-06, 03:29:05,VALID,1008.61,VALID,0,VALID,88.7943,VALID,0,VALID,23.3823,VALID,134,VALID,0.735937,
2008-12-06, 03:30:05,VALID,1008.62,VALID,0,VALID,88.8172,VALID,0,VALID,23.3823,VALID,128,VALID,0.714453,
2008-12-06, 03:31:05,VALID,1008.61,VALID,0,VALID,88.84,VALID,0,VALID,23.361,VALID,127,VALID,0.609766,
2008-12-06, 03:32:05,VALID,1008.61,VALID,0,VALID,88.8629,VALID,0.105969,VALID,23.3415,VALID,127,VALID,0.478906,
2008-12-06, 03:33:05,VALID,1008.61,VALID,0,VALID,89.1908,VALID,0,VALID,23.3628,VALID,138,VALID,0.641016,
2008-12-06, 03:34:05,VALID,1008.59,VALID,0,VALID,88.718,VALID,0,VALID,23.3415,VALID,136,VALID,0.473437,
2008-12-06, 03:35:05,VALID,1008.62,VALID,0,VALID,88.8477,VALID,0,VALID,23.3628,VALID,159,VALID,0.419141,
2008-12-06, 03:36:05,VALID,1008.62,VALID,0,VALID,89.6865,VALID,0,VALID,23.3415,VALID,159,VALID,0.0117188,
2008-12-06, 03:37:05,VALID,1008.61,VALID,0,VALID,89.1679,VALID,0,VALID,23.3433,VALID,159,VALID,0.225,
2008-12-06, 03:38:05,VALID,1008.64,VALID,0,VALID,89.3281,VALID,0,VALID,23.3238,VALID,159,VALID,0.208984,
2008-12-06, 03:39:05,VALID,1008.62,VALID,0,VALID,88.9697,VALID,0,VALID,23.3043,VALID,159,VALID,0.355078,
2008-12-06, 03:40:05,VALID,1008.66,VALID,0,VALID,88.9773,VALID,0,VALID,23.3043,VALID,159,VALID,0.268359,
2008-12-06, 03:41:05,VALID,1008.65,VALID,0,VALID,88.9849,VALID,0,VALID,23.3043,VALID,159,VALID,0,
2008-12-06, 03:42:05,VALID,1008.68,VALID,0,VALID,89.0612,VALID,0,VALID,23.3043,VALID,159,VALID,0,
2008-12-06, 03:43:05,VALID,1008.71,VALID,0,VALID,89.0917,VALID,0,VALID,23.3043,VALID,159,VALID,0,
2008-12-06, 03:44:05,VALID,1008.69,VALID,0,VALID,89.0612,VALID,0,VALID,23.3043,VALID,159,VALID,0,
2008-12-06, 03:45:05,VALID,1008.73,VALID,0,VALID,88.7638,VALID,0,VALID,23.3238,VALID,159,VALID,0,
2008-12-06, 03:46:05,VALID,1008.73,VALID,0,VALID,88.8095,VALID,0,VALID,23.3026,VALID,159,VALID,0,
2008-12-06, 03:47:04,VALID,1008.76,VALID,0,VALID,88.9544,VALID,0,VALID,23.3433,VALID,159,VALID,0,
2008-12-06, 03:48:04,VALID,1008.78,VALID,0,VALID,88.2681,VALID,0,VALID,23.3628,VALID,115,VALID,0.538672,
2008-12-06, 03:49:04,VALID,1008.78,VALID,0,VALID,88.4435,VALID,0,VALID,23.3628,VALID,115,VALID,0.561719,
2008-12-06, 03:50:04,VALID,1008.78,VALID,0,VALID,88.8324,VALID,0,VALID,23.3823,VALID,115,VALID,0.505469,